TimePST,TemperatureF,Dew PointF,Humidity,Sea Level PressureIn,VisibilityMPH,Wind Direction,Wind SpeedMPH,Gust SpeedMPH,PrecipitationIn,Events,Conditions,WindDirDegrees,DateUTC
12:25 AM,41.0,39.2,93,30.08,10.0,SSW,6.9,-,0.00,Rain,Light Rain,200,2012-12-27 08:25:00
12:54 AM,41.0,39.9,96,30.10,10.0,SW,5.8,-,0.02,Rain,Light Rain,220,2012-12-27 08:54:00
1:54 AM,41.0,39.9,96,30.11,10.0,SW,5.8,-,0.01,,Overcast,220,2012-12-27 09:54:00
2:54 AM,39.9,39.0,97,30.13,10.0,SW,4.6,-,N/A,,Overcast,220,2012-12-27 10:54:00
3:01 AM,39.2,39.2,100,30.12,10.0,SSW,5.8,-,N/A,,Overcast,210,2012-12-27 11:01:00
3:24 AM,39.2,37.4,93,30.12,10.0,South,6.9,-,N/A,,Overcast,190,2012-12-27 11:24:00
3:54 AM,37.0,36.0,96,30.13,10.0,South,6.9,-,N/A,,Mostly Cloudy,190,2012-12-27 11:54:00
4:54 AM,39.0,37.9,96,30.14,10.0,South,5.8,-,N/A,,Overcast,170,2012-12-27 12:54:00
5:54 AM,39.0,37.9,96,30.16,10.0,South,3.5,-,N/A,,Overcast,170,2012-12-27 13:54:00
6:54 AM,37.9,37.0,97,30.17,10.0,South,5.8,-,N/A,,Overcast,180,2012-12-27 14:54:00
7:54 AM,37.9,37.0,97,30.18,10.0,South,6.9,-,N/A,,Mostly Cloudy,180,2012-12-27 15:54:00
8:54 AM,39.9,37.9,93,30.19,10.0,SSE,3.5,-,N/A,,Mostly Cloudy,160,2012-12-27 16:54:00
9:54 AM,42.1,39.0,89,30.21,10.0,SSW,6.9,-,N/A,,Overcast,200,2012-12-27 17:54:00
10:54 AM,42.1,39.0,89,30.22,10.0,SW,4.6,-,N/A,,Overcast,230,2012-12-27 18:54:00
11:54 AM,44.1,39.0,82,30.21,10.0,South,4.6,-,N/A,,Mostly Cloudy,180,2012-12-27 19:54:00
12:20 PM,44.6,37.4,76,30.20,10.0,Variable,4.6,-,N/A,,Mostly Cloudy,0,2012-12-27 20:20:00
12:54 PM,46.9,39.0,74,30.19,10.0,South,8.1,-,N/A,,Mostly Cloudy,180,2012-12-27 20:54:00
1:41 PM,46.4,37.4,71,30.19,10.0,WSW,8.1,-,N/A,,Mostly Cloudy,240,2012-12-27 21:41:00
1:54 PM,45.0,39.0,80,30.20,10.0,West,5.8,-,N/A,,Mostly Cloudy,260,2012-12-27 21:54:00
2:54 PM,46.0,37.9,73,30.19,10.0,South,5.8,-,N/A,,Mostly Cloudy,190,2012-12-27 22:54:00
3:54 PM,45.0,37.9,76,30.19,10.0,SSW,5.8,-,N/A,,Mostly Cloudy,210,2012-12-27 23:54:00
4:54 PM,43.0,37.9,82,30.20,10.0,SSW,6.9,-,N/A,,Mostly Cloudy,210,2012-12-28 00:54:00
5:54 PM,41.0,37.9,89,30.19,10.0,SSE,5.8,-,N/A,,Mostly Cloudy,150,2012-12-28 01:54:00
6:54 PM,39.9,37.0,89,30.19,10.0,SSE,6.9,-,N/A,,Mostly Cloudy,150,2012-12-28 02:54:00
7:54 PM,39.9,37.9,93,30.18,10.0,SE,6.9,-,N/A,,Mostly Cloudy,130,2012-12-28 03:54:00
8:54 PM,39.9,37.0,89,30.18,10.0,SE,8.1,-,N/A,,Mostly Cloudy,140,2012-12-28 04:54:00
9:54 PM,39.0,36.0,89,30.18,10.0,SSE,9.2,-,N/A,,Overcast,150,2012-12-28 05:54:00
10:54 PM,37.9,36.0,93,30.19,10.0,SSE,6.9,-,N/A,,Overcast,160,2012-12-28 06:54:00
11:54 PM,37.9,35.1,89,30.18,10.0,SSE,8.1,-,N/A,,Overcast,160,2012-12-28 07:54:00